Terminal Aerodrome Forecast
Issued by NWS

Home | Current Version | Previous Version | Text Only | Print | Product List | Glossary Off
Versions: 1 2 3 4 5 6 7 8 9 10 11 12 13 14 15 16 17 18 19 20 21 22 23 24 25 26 27 28 29 30 31 32 33 34

000
FTUS43 KLOT 071726
TAFORD
TAF
KORD 071726Z 0718/0824 03017G25KT P6SM SCT035 BKN045
     FM072300 03012KT P6SM SCT200
     FM080200 02008KT P6SM FEW250
     FM081400 07008KT P6SM SCT030 BKN200
     FM082100 08008KT P6SM OVC025=

USA.gov is the U.S. government's official web portal to all federal, state and local government web resources and services.